Theta_e
324 324 325 325 325 325 324 323 322 320 320 319 317 315 315 315 316 318 318 318 318 318 318 321 322 323 324 323 323 321 319 319 318 318 320 321 320 321 324 322 322 325 325 323 323 322 323 326 331 332 335 337 336 335 335 340 342 338 333 330 330 331 333 335 337 337 339 341 341 344 344 344 345 346 349 349 351 353 354 356 354 351 352 352 350 347 347 349
322 324 325 326 326 326 324 323 322 321 321 320 318 316 316 318 320 320 319 318 319 319 319 321 322 323 324 323 323 322 320 319 318 318 320 321 320 320 323 323 323 326 324 323 323 323 324 328 331 332 335 337 334 331 331 337 340 334 330 329 329 330 330 331 336 340 341 342 343 344 344 345 345 346 348 346 350 354 355 356 355 354 354 353 350 348 349 350
321 323 324 325 326 325 325 323 323 322 321 321 320 319 320 322 322 320 319 318 319 320 321 321 323 324 324 324 323 322 321 319 318 319 320 320 320 321 321 323 324 325 323 323 323 323 326 330 332 332 333 333 331 330 328 333 337 331 328 330 328 327 331 332 337 341 342 344 344 344 345 345 346 345 347 346 348 351 353 355 356 355 354 353 351 349 349 350
321 322 324 325 325 326 326 324 323 323 322 322 321 321 323 323 323 321 318 318 319 320 321 322 323 324 324 324 324 322 320 318 318 319 320 320 321 321 322 323 324 323 323 323 322 323 328 332 331 330 330 328 326 327 326 328 333 330 327 330 328 330 334 337 339 342 343 345 345 344 345 345 345 346 346 347 345 346 352 355 355 355 354 353 352 350 351 351
321 322 323 324 325 326 325 324 323 323 322 323 322 322 323 323 323 322 318 317 318 319 320 321 321 321 322 322 323 323 319 318 318 320 320 320 321 321 322 323 323 323 322 323 322 323 328 331 330 328 328 326 325 325 324 324 327 327 324 324 327 331 336 339 340 342 343 344 344 344 344 345 346 346 346 346 345 344 349 353 356 356 354 352 351 351 352 352
322 322 322 323 324 325 326 325 324 323 323 323 323 323 323 323 324 323 318 317 318 319 319 319 319 319 320 320 321 321 318 318 320 323 324 321 320 321 321 322 323 323 323 322 322 325 329 329 330 329 329 327 325 324 324 322 324 326 324 324 330 335 339 341 341 342 343 343 344 345 345 346 347 347 348 348 348 348 347 351 356 356 354 352 351 352 353 353
322 322 323 323 323 324 325 325 324 323 323 324 323 323 324 323 325 324 319 317 317 318 318 318 319 318 319 318 319 319 318 320 323 327 327 322 320 321 321 322 322 322 322 322 323 326 327 328 328 329 328 326 324 323 323 323 324 327 326 330 337 340 341 341 342 342 343 344 346 346 347 348 347 347 349 352 352 350 349 351 354 355 354 353 353 354 354 354
323 322 323 323 323 324 325 325 324 324 323 324 324 323 324 325 326 324 319 317 317 318 317 317 317 316 318 318 318 319 318 322 325 324 326 324 321 321 321 322 322 322 322 322 325 328 326 327 327 327 327 326 325 324 322 324 326 326 329 335 341 342 343 343 344 344 344 346 347 347 349 350 349 348 350 353 353 352 349 351 353 354 355 354 354 355 355 353
324 323 322 322 322 323 324 325 324 324 324 324 325 323 325 326 325 322 317 318 318 316 315 314 314 314 315 316 317 318 319 322 322 323 326 325 322 321 322 322 322 322 322 322 325 328 327 327 327 326 327 326 324 324 324 326 326 328 332 339 342 343 345 346 347 348 347 348 348 348 350 350 348 348 349 352 354 352 350 351 352 355 356 356 355 355 354 352
324 324 323 322 322 323 323 324 324 324 323 324 325 323 325 324 321 319 317 318 317 315 314 313 314 314 313 315 316 318 320 321 321 324 325 325 322 321 321 321 322 322 322 323 326 329 327 326 327 326 326 325 324 324 325 326 327 333 339 341 344 344 346 348 350 350 349 350 350 348 348 351 349 347 349 352 354 353 352 353 352 354 355 356 356 355 354 352
323 324 323 323 322 322 323 324 324 324 324 325 326 324 325 323 318 318 318 317 316 315 314 313 312 313 313 314 317 319 322 322 324 325 325 324 323 321 321 321 321 322 322 324 328 329 327 326 326 325 326 325 325 324 324 326 333 340 342 343 344 345 347 349 350 349 349 350 350 350 348 350 350 348 350 352 353 353 353 355 354 354 354 355 356 356 355 354
322 323 323 323 322 322 322 323 324 324 324 325 327 326 326 325 319 317 318 318 317 316 316 316 315 314 313 314 318 324 326 326 326 326 324 324 323 321 321 321 321 322 323 325 328 328 326 326 326 325 326 325 325 324 325 331 338 342 342 344 344 345 346 347 348 348 349 348 348 348 342 347 351 348 350 351 352 353 353 354 354 355 355 354 356 356 357 356
319 321 322 323 323 322 321 323 324 324 324 325 328 326 324 326 323 317 318 319 318 318 319 321 321 319 318 318 321 326 328 328 326 325 324 323 324 322 322 323 322 322 324 328 329 327 326 326 326 325 325 325 324 324 328 334 338 341 342 343 344 344 345 346 345 347 348 345 348 344 333 342 353 349 350 352 351 353 353 353 353 354 355 354 355 356 357 357
317 319 321 322 322 322 322 323 324 324 325 325 327 327 323 326 326 319 318 319 319 320 320 321 325 326 325 325 325 328 329 328 327 324 323 322 323 324 323 323 322 323 327 329 328 327 326 326 326 326 325 325 325 326 330 332 334 339 341 341 344 340 340 345 343 345 349 344 347 344 331 341 353 350 350 351 351 353 352 352 352 352 354 354 354 355 355 356
316 317 319 321 322 322 321 322 324 324 324 326 327 327 322 325 328 322 318 320 320 321 323 325 327 328 328 327 326 328 330 329 328 324 323 323 323 323 323 323 325 327 329 329 328 327 326 326 326 326 325 325 325 327 329 330 332 336 336 336 340 337 339 345 342 343 348 344 347 343 334 344 354 350 351 350 350 352 352 352 352 351 353 354 353 353 353 353
315 316 318 319 321 322 321 322 324 324 324 326 327 326 324 324 326 324 322 320 319 320 323 326 327 326 328 327 326 328 329 329 328 324 322 323 322 323 324 326 329 330 329 328 328 326 326 326 326 325 325 326 326 327 330 331 332 332 331 333 336 336 339 343 340 342 346 345 346 344 340 348 354 352 351 350 350 351 352 352 351 351 352 352 352 352 352 351
314 316 318 319 319 321 321 321 323 324 325 326 326 325 324 324 323 325 326 322 321 322 322 324 324 325 326 325 325 326 327 329 327 324 323 324 325 326 327 329 330 329 328 328 327 327 326 325 325 324 325 325 325 327 327 325 328 329 328 331 333 335 337 338 339 341 345 344 345 348 347 350 352 353 353 351 351 351 352 352 351 351 351 351 351 351 351 350
314 316 317 318 319 320 320 321 322 324 325 326 325 324 324 323 323 325 326 324 324 324 324 326 326 325 324 324 325 326 326 327 326 325 324 327 328 328 329 329 329 328 327 326 326 327 326 325 326 326 325 324 326 328 323 321 327 327 324 327 328 331 336 337 337 340 343 344 346 347 349 352 353 354 354 353 352 351 352 353 352 352 351 351 351 351 350 349
314 315 317 318 319 319 320 321 322 324 326 326 326 325 324 322 323 326 326 325 326 326 326 328 327 325 323 324 326 326 326 326 326 326 325 327 329 329 329 329 328 327 327 326 326 325 326 325 325 325 325 326 326 328 325 324 328 327 325 326 326 328 333 337 337 340 343 344 346 347 350 354 355 353 355 355 353 353 354 354 353 353 352 351 350 350 350 350
313 314 316 318 319 319 319 320 321 324 326 326 326 325 325 324 325 327 326 325 326 325 326 326 326 326 326 326 327 326 325 326 326 326 326 327 329 329 328 328 328 326 326 326 326 324 325 326 326 325 326 327 326 327 327 326 326 327 325 324 325 326 328 334 339 339 342 344 344 349 353 355 355 353 355 356 354 354 355 355 355 354 353 352 351 351 350 349
313 314 315 318 320 319 318 319 321 323 326 326 326 326 326 326 327 327 326 326 325 325 325 326 325 326 327 326 326 326 325 326 327 326 326 328 328 329 328 327 327 327 325 323 323 324 325 325 325 326 327 326 325 324 325 325 324 325 324 322 323 325 328 335 338 338 340 342 344 350 355 356 355 354 356 357 355 354 355 355 356 355 354 353 352 352 351 350
311 313 314 316 320 319 319 319 320 323 326 326 326 326 326 326 327 326 326 325 325 326 325 325 325 325 326 325 326 326 325 325 325 326 327 328 329 328 327 326 327 326 323 322 324 325 324 325 326 327 325 323 322 322 324 324 323 324 324 322 320 325 332 335 338 339 339 342 347 351 353 353 354 353 355 357 356 354 355 354 355 355 355 353 352 352 351 350
311 312 313 315 319 320 319 319 320 323 325 326 326 326 326 327 327 327 327 326 326 325 324 325 324 324 325 325 326 326 326 327 325 326 328 328 329 327 326 326 325 325 323 324 326 324 322 324 326 324 322 323 322 322 323 323 323 323 324 321 320 328 332 329 334 341 342 343 347 351 352 351 352 353 354 355 355 355 354 353 353 354 355 354 353 351 351 351
310 311 312 314 317 320 319 319 321 322 324 325 326 326 327 327 328 328 328 327 326 327 325 325 324 324 325 325 326 327 326 327 326 327 327 328 328 326 326 326 324 324 324 324 325 324 324 323 323 321 321 324 323 322 323 324 323 323 325 322 324 331 332 332 337 342 344 345 348 348 345 346 351 353 354 354 353 353 353 353 352 352 353 353 353 351 351 350
310 310 311 312 317 320 319 319 321 322 323 325 325 327 326 326 328 328 328 326 325 326 326 326 326 326 326 326 327 327 326 326 327 327 326 327 327 325 326 324 324 326 324 323 323 326 325 322 321 322 322 323 323 323 324 324 323 323 326 325 328 334 336 339 341 339 338 339 346 346 336 338 348 352 353 353 352 352 353 354 353 353 352 352 353 353 351 351
309 309 311 311 314 319 320 319 320 320 322 324 326 327 326 327 329 328 329 325 322 324 325 325 326 326 326 326 327 327 326 325 326 327 327 327 327 326 325 323 324 325 323 323 324 324 324 321 321 323 321 321 323 324 324 325 325 322 325 328 332 336 338 339 340 335 332 333 344 344 332 332 340 347 351 352 352 352 352 354 354 353 352 352 353 353 350 350
309 309 310 310 312 317 318 317 317 317 319 323 327 327 326 328 329 329 329 321 318 324 325 323 324 325 325 325 327 326 323 324 325 326 327 327 326 325 325 324 323 323 322 323 322 321 323 322 321 322 322 322 323 324 323 325 326 322 325 330 334 338 339 340 338 333 334 337 342 341 334 331 333 340 349 350 352 353 352 352 353 354 352 351 352 352 350 348
309 309 310 311 311 312 315 317 317 317 319 324 326 326 326 328 330 331 327 319 319 323 323 322 324 323 324 325 326 325 322 324 324 324 326 326 325 324 324 325 325 324 323 322 321 321 324 324 323 324 324 323 324 326 323 324 324 321 324 331 335 337 338 339 336 334 336 337 337 339 336 330 329 336 347 349 351 353 353 351 352 354 353 351 351 351 349 347
309 309 310 310 311 312 313 316 316 317 320 323 324 324 326 329 330 330 324 320 322 324 321 323 323 321 323 324 324 323 322 324 324 324 325 325 325 325 324 324 324 324 322 322 323 323 323 324 324 323 325 324 324 324 321 323 323 321 325 330 331 332 334 334 334 334 333 329 331 337 336 328 327 333 344 348 350 351 352 351 352 354 352 351 351 350 348 347
309 309 309 310 311 312 313 316 317 318 320 319 320 324 327 330 328 323 320 321 324 323 320 322 322 321 322 323 322 322 322 322 323 324 324 324 325 323 324 323 322 324 323 323 324 323 323 324 325 325 326 324 322 320 320 322 323 324 328 330 329 330 331 331 331 332 330 325 326 332 336 331 325 329 342 349 349 349 351 351 351 353 353 352 350 349 347 347
309 309 309 310 311 312 314 316 315 317 317 316 320 326 328 331 327 319 319 323 322 322 322 321 321 321 321 322 322 322 322 322 323 324 323 323 324 322 323 323 323 324 324 324 323 323 324 324 324 325 324 322 322 321 321 321 323 325 327 327 325 326 328 326 326 327 327 325 323 326 334 333 325 327 339 348 347 347 348 350 350 352 353 352 350 349 347 347
309 310 310 310 311 312 313 315 314 315 316 316 322 328 331 329 324 319 322 324 321 322 323 322 321 322 321 322 323 321 322 322 322 324 323 322 323 324 324 324 326 323 320 321 322 323 326 326 325 325 324 325 325 323 321 321 324 324 325 326 323 321 322 322 321 324 323 323 323 324 331 334 329 331 339 343 345 346 347 348 350 352 353 353 351 348 347 346
309 310 310 311 311 312 313 313 314 315 315 318 324 330 331 326 323 323 324 324 322 324 323 321 321 321 322 321 322 322 322 322 322 323 323 322 324 324 322 324 327 323 319 320 320 319 322 326 326 325 325 327 326 324 322 320 324 324 324 326 323 319 319 319 320 321 320 321 323 325 331 331 329 334 338 338 340 345 348 349 349 351 352 351 350 348 347 347
309 310 311 311 312 312 313 313 314 315 315 319 325 329 327 324 326 329 329 328 327 325 323 321 321 321 322 322 322 322 322 322 322 322 322 322 323 323 323 322 322 325 325 321 320 320 319 321 325 326 324 325 326 325 324 324 324 323 325 325 323 321 319 318 319 319 319 321 323 326 329 326 325 333 338 338 338 341 344 346 348 350 351 350 349 348 348 347
310 310 311 312 312 313 314 313 314 315 315 321 328 329 326 326 327 328 331 330 328 328 325 322 321 321 321 321 322 321 322 322 321 323 323 323 323 323 324 323 321 325 324 319 320 322 319 320 326 326 323 323 326 325 326 327 323 321 323 323 321 324 325 322 320 321 321 320 324 327 326 328 331 335 337 338 339 341 340 342 346 349 350 351 350 349 348 346
310 311 311 312 314 314 314 314 314 314 317 325 328 326 327 329 326 326 331 329 326 328 326 322 321 321 319 320 322 322 321 321 322 322 322 322 323 323 324 324 323 323 324 323 324 323 319 320 326 326 323 324 325 325 325 325 323 322 321 320 322 325 330 327 321 323 323 318 323 326 324 328 332 332 337 339 339 341 340 340 344 348 350 350 350 349 348 345
311 311 312 315 318 319 316 314 314 314 320 326 327 326 329 328 326 327 331 329 325 326 326 322 321 320 318 319 321 322 322 322 321 321 321 321 321 322 325 324 322 322 325 325 325 325 320 320 326 327 325 323 323 324 324 323 324 323 320 321 324 322 328 331 324 322 321 318 322 324 323 327 326 326 337 343 341 342 341 340 344 348 350 350 349 349 347 345
311 310 314 319 322 323 320 314 313 317 324 327 329 333 331 326 325 325 327 327 325 326 327 324 322 320 320 319 320 322 321 319 320 322 320 320 321 322 324 325 323 322 324 324 324 325 323 320 323 327 325 324 324 324 324 323 323 323 323 324 324 320 325 329 325 321 320 318 321 322 323 327 326 326 335 344 347 346 343 342 344 347 350 349 349 349 347 346
310 311 316 322 322 321 317 315 318 324 326 327 330 332 328 325 327 327 327 327 326 326 327 325 323 322 321 321 321 322 322 319 320 322 320 320 321 323 324 325 324 321 322 324 324 325 326 321 320 324 326 323 325 325 324 323 323 323 324 324 324 325 327 326 323 320 319 320 320 321 322 324 328 334 337 342 352 350 344 343 345 347 349 349 349 349 347 346
310 312 318 322 320 318 319 321 325 327 327 328 329 329 325 325 327 326 326 327 325 326 327 325 323 324 323 323 323 323 323 321 321 321 321 320 320 322 323 324 325 323 320 322 325 326 329 324 320 324 325 322 324 325 325 325 325 323 323 323 323 324 324 323 322 321 320 322 321 320 320 320 329 344 347 347 351 348 344 345 346 347 349 348 348 348 347 347
310 313 318 321 320 321 326 328 328 328 327 326 326 327 326 326 328 328 326 326 326 327 327 324 324 326 327 325 323 324 324 323 322 322 321 321 321 323 323 323 325 323 320 323 325 325 328 326 322 322 322 321 323 326 326 326 326 325 324 324 323 324 323 321 321 322 321 322 322 321 318 319 333 347 348 347 345 344 346 346 347 348 347 347 347 347 347 347
312 313 317 320 321 323 329 329 325 325 327 326 325 325 326 327 328 327 325 325 325 326 325 325 325 326 327 326 325 326 327 324 322 323 322 321 323 323 323 324 324 322 323 325 325 327 333 336 329 324 324 325 325 326 324 323 325 325 325 326 325 328 326 320 319 322 323 322 323 322 319 322 335 338 338 341 340 341 344 347 347 347 346 345 346 346 347 347
315 314 314 318 321 324 328 328 324 324 326 324 323 322 323 324 324 324 322 322 324 324 323 324 324 325 326 325 325 327 328 325 323 325 325 325 325 324 324 325 324 323 326 325 325 329 337 341 333 326 327 328 325 326 325 323 324 324 325 326 324 326 326 324 327 330 325 321 323 321 319 323 334 335 335 340 339 340 341 344 345 345 345 345 344 344 346 346
316 316 315 318 321 323 326 326 324 324 325 324 323 321 321 320 320 321 320 320 323 324 324 325 324 324 324 324 326 327 327 324 324 326 327 328 327 325 325 328 326 324 326 327 330 329 331 337 333 324 324 325 323 325 325 324 326 327 327 325 325 327 327 326 331 332 325 325 325 321 318 323 335 339 339 339 340 340 339 341 343 344 344 343 342 343 344 344
318 319 318 319 321 321 322 322 321 322 324 325 324 322 321 320 320 321 320 320 322 323 325 326 323 323 324 324 326 327 326 325 325 327 326 327 327 327 328 329 326 325 327 329 330 331 333 340 337 325 320 320 321 323 324 326 327 327 328 325 325 328 326 327 330 326 323 326 326 321 320 326 337 344 341 340 340 341 342 340 340 341 341 341 341 341 342 343
320 322 322 322 322 322 321 322 322 322 324 325 324 322 321 322 323 323 321 321 322 322 323 324 323 324 324 324 328 329 327 325 326 330 332 328 327 327 329 332 330 331 335 330 326 337 343 342 343 339 328 324 328 331 331 331 328 325 327 326 324 326 327 331 330 324 325 326 323 327 333 328 330 340 342 344 344 344 344 342 340 340 339 339 340 339 340 341
320 321 322 323 323 324 323 323 323 324 324 323 323 322 322 323 324 324 323 322 322 322 322 323 324 324 324 327 331 329 329 329 330 331 331 330 332 328 327 333 338 340 343 332 326 342 346 334 337 346 338 331 334 336 333 333 329 327 328 325 324 327 327 328 327 328 333 325 319 337 347 331 327 336 341 345 347 347 347 343 340 340 338 337 338 337 339 339
320 321 320 320 323 324 323 324 324 323 323 323 322 322 322 323 324 325 324 324 322 322 323 324 324 324 324 325 327 329 333 334 333 332 331 332 335 332 327 331 333 335 337 330 328 344 348 333 328 333 332 329 329 328 330 332 331 330 330 326 325 327 326 327 331 334 335 325 324 343 349 335 330 334 335 337 342 343 343 339 338 338 337 336 337 337 338 338
318 319 318 318 321 323 323 323 323 322 322 323 323 321 321 323 323 322 322 323 323 323 324 326 325 325 324 323 330 341 340 331 329 335 339 338 336 334 332 331 328 327 331 331 331 337 340 334 330 329 327 326 326 328 329 330 329 328 328 328 327 327 326 328 332 333 331 329 331 338 340 336 333 332 333 334 333 331 331 331 333 336 336 335 336 337 338 337
315 317 317 317 320 323 323 322 321 321 320 322 323 320 319 321 321 320 321 322 324 325 324 325 326 325 323 324 332 339 333 327 330 335 337 337 337 338 338 335 330 328 330 332 333 331 331 332 333 333 329 326 327 329 328 328 329 327 327 329 328 326 326 327 329 330 329 330 334 334 334 335 333 332 333 330 328 328 330 332 334 336 336 335 337 337 338 337
315 315 315 317 320 323 323 320 320 321 320 319 321 320 319 320 319 319 320 321 322 324 324 324 325 324 324 326 329 327 323 324 327 327 327 329 331 333 333 331 331 331 334 334 332 335 338 334 331 333 327 324 326 328 327 327 328 325 326 329 328 326 327 328 329 331 330 332 337 334 329 331 334 336 334 332 332 333 334 336 336 335 335 335 337 337 337 337
314 315 314 316 319 318 319 319 319 321 320 318 319 318 318 319 319 319 323 322 321 323 323 323 324 324 327 329 327 324 322 322 323 324 324 325 324 324 325 326 328 332 340 339 334 338 344 335 329 330 326 323 326 328 327 327 325 323 326 331 331 329 329 328 329 332 333 333 333 330 327 332 340 340 338 338 338 337 337 337 336 334 334 334 335 336 336 336
Wind_Speed
18 18 18 20 21 22 24 25 26 27 26 25 22 20 19 19 19 17 16 15 14 13 11 11 11 11 11 11 10 10 10 11 12 14 16 12 10 12 11 11 11 11 10 7 6 5 4 3 3 2 3 4 3 3 3 4 5 3 2 1 3 2 3 5 6 4 6 9 11 11 10 11 9 9 12 12 14 13 11 11 8 8 10 13 17 29 29 22
18 18 18 19 21 22 23 25 26 27 27 27 25 22 20 20 19 18 16 15 14 13 11 10 10 11 11 10 10 9 9 10 12 17 17 12 11 14 13 12 12 11 9 7 5 4 3 3 3 2 2 5 2 2 1 4 7 2 1 2 2 2 1 2 6 8 7 11 13 8 7 10 9 10 9 6 8 10 11 11 12 16 16 16 23 29 26 23
18 18 18 19 20 22 23 24 25 26 27 28 27 24 21 20 19 17 16 15 14 12 11 10 10 10 10 9 9 8 8 8 13 18 16 14 14 15 14 13 12 12 9 6 5 4 3 4 3 1 2 4 2 4 2 3 5 1 1 2 2 3 1 1 7 8 7 12 14 9 7 10 9 7 6 6 8 6 7 9 10 17 20 21 25 28 26 22
19 19 18 19 20 22 23 24 24 25 26 27 27 25 23 20 19 18 16 14 12 11 10 9 8 8 8 8 7 6 5 6 11 15 14 17 17 16 15 15 14 12 9 7 5 4 4 4 2 1 3 3 3 5 3 1 3 1 1 1 3 5 3 4 6 6 7 13 15 12 11 10 8 7 6 6 5 3 4 6 8 19 25 25 26 26 24 22
19 19 19 19 20 21 22 23 24 24 25 26 26 25 24 22 20 18 16 13 11 10 8 8 7 7 7 7 7 5 2 1 6 10 13 19 20 18 17 15 14 11 8 7 4 3 3 3 2 2 4 4 2 2 2 1 4 3 1 2 4 3 4 7 10 12 13 15 15 12 10 8 8 9 8 5 4 4 1 4 11 21 26 28 28 26 23 21
20 20 20 19 20 21 22 23 23 24 24 25 24 24 25 23 21 19 16 12 9 8 7 6 5 6 6 6 6 7 6 1 4 7 12 19 20 19 18 16 14 10 8 7 4 4 5 4 3 3 3 2 2 2 3 2 4 3 2 4 6 5 7 9 13 17 16 16 13 9 8 9 11 9 8 9 7 6 5 8 17 21 23 27 28 25 23 21
20 20 20 20 20 21 22 23 23 23 24 24 23 23 25 24 21 19 16 10 7 7 6 7 7 8 7 8 7 7 10 4 3 6 9 16 20 20 19 17 14 11 9 7 5 7 7 6 5 6 3 1 1 2 5 5 3 4 4 5 9 12 12 13 17 19 17 15 12 11 11 8 9 7 7 11 10 9 11 13 19 21 22 24 24 22 22 20
20 20 21 20 20 21 22 23 23 23 24 23 23 23 25 24 20 17 13 9 7 8 8 9 9 10 10 10 8 5 9 7 3 4 7 12 18 20 19 17 15 12 10 7 7 8 8 7 8 7 2 1 1 1 4 7 7 6 5 6 10 14 13 17 21 21 19 16 14 14 12 10 11 10 9 10 11 13 14 15 18 20 20 20 20 20 20 19
21 21 21 21 20 21 21 23 22 23 23 22 22 23 24 21 17 13 10 8 8 9 9 8 8 9 10 11 9 5 7 8 4 3 6 10 16 19 19 17 15 13 10 8 9 7 6 7 7 6 3 2 2 1 2 4 4 5 7 9 12 13 12 18 20 20 18 14 15 15 12 11 12 10 9 8 11 16 16 16 17 18 18 17 18 19 18 18
21 21 21 21 21 21 21 22 22 23 22 21 21 23 22 19 14 9 7 7 8 8 6 4 4 7 8 11 10 4 7 8 4 4 6 9 14 18 20 17 15 13 9 10 10 8 8 8 8 8 6 4 3 5 6 4 7 11 16 15 14 13 9 13 17 18 16 12 15 15 12 9 7 5 5 7 12 17 18 17 16 16 17 16 16 17 16 17
21 21 21 21 21 21 21 22 22 22 21 20 21 22 21 17 12 7 6 7 7 7 6 4 2 6 8 13 11 5 7 7 4 6 7 9 13 15 17 16 14 11 10 13 11 10 11 9 9 6 4 4 4 8 10 9 15 20 22 17 13 13 9 10 16 15 11 10 12 14 14 11 7 5 5 9 13 15 18 17 15 15 15 15 15 15 14 14
21 21 21 21 22 21 21 22 22 21 21 19 21 22 20 16 11 7 6 6 6 6 6 7 6 5 7 12 11 5 7 7 6 7 7 11 14 15 14 13 13 11 12 15 12 11 11 9 7 4 5 5 3 5 7 13 17 19 19 13 10 10 8 6 11 10 4 9 10 4 9 9 8 5 7 11 13 14 16 16 15 14 14 14 14 13 11 12
22 21 21 21 22 21 21 21 21 21 20 19 20 22 21 15 10 7 5 5 5 5 4 6 6 5 4 7 7 4 6 7 7 7 7 10 14 16 16 15 15 14 14 15 13 11 10 8 6 6 8 5 3 6 10 13 13 13 11 9 8 7 5 4 5 5 2 8 7 6 2 6 5 6 8 11 13 14 15 14 14 13 14 15 14 12 11 11
21 21 21 21 21 21 21 20 21 21 19 18 19 22 21 13 8 7 4 4 4 4 3 2 4 2 1 3 5 4 5 7 7 7 7 10 14 17 17 17 18 17 15 14 11 10 8 7 7 8 8 6 9 13 11 8 6 8 7 5 6 5 7 7 3 3 5 6 5 8 3 4 3 7 9 12 14 15 14 13 13 12 14 15 15 13 12 12
21 21 21 21 21 21 21 20 20 20 18 18 19 21 21 12 7 6 4 3 3 4 3 2 3 4 3 2 4 5 5 7 7 8 9 11 15 17 19 19 20 18 15 12 10 9 8 6 7 6 6 8 11 10 7 4 3 4 5 4 3 3 7 8 5 5 5 3 6 6 4 5 4 8 10 13 14 14 13 12 12 12 13 14 15 14 13 12
22 21 20 20 21 20 21 19 19 20 18 17 18 20 19 11 7 6 5 3 3 3 2 2 3 3 2 2 4 5 6 7 7 10 12 14 16 19 22 20 18 16 12 10 9 8 8 7 7 5 4 6 6 6 7 6 3 1 1 5 6 5 6 6 6 6 5 2 4 4 4 4 4 9 11 13 14 13 12 11 12 11 12 14 15 15 14 14
22 21 20 20 20 20 20 18 18 18 17 16 17 20 19 12 9 7 5 4 4 4 3 4 3 2 1 2 4 6 8 8 8 11 14 16 16 19 20 17 15 13 11 10 9 8 7 6 6 4 3 3 1 5 7 5 5 3 0 3 5 5 8 6 4 6 5 3 2 3 4 5 6 10 12 12 14 13 11 12 12 12 12 14 15 15 15 15
23 21 20 20 19 19 19 18 17 17 16 15 16 20 17 12 10 6 4 3 3 3 4 3 3 1 2 4 4 6 10 10 10 13 15 16 16 16 15 14 12 12 11 10 7 6 5 4 3 2 2 2 1 4 5 5 7 8 6 5 4 4 8 8 4 6 7 3 2 5 6 6 7 9 11 11 13 13 11 11 11 12 12 14 16 16 16 16
23 22 20 19 19 18 18 17 16 15 15 13 16 18 14 13 9 2 0 4 6 4 3 3 5 2 1 6 4 6 10 12 12 13 15 15 16 15 12 12 12 12 11 7 4 3 3 3 3 3 3 3 5 5 4 5 7 9 7 6 8 7 7 6 2 3 8 6 4 5 6 8 9 8 9 10 10 10 9 8 9 11 12 14 15 16 18 17
23 22 20 19 19 18 17 16 15 14 13 11 15 16 12 13 7 0 7 12 11 7 7 7 9 8 3 6 5 7 11 13 13 13 14 14 15 14 11 11 11 9 6 4 3 3 2 3 3 4 5 5 5 4 5 6 5 5 4 4 7 8 5 4 3 2 6 5 2 1 6 10 9 7 8 9 9 8 8 8 9 10 12 13 15 16 17 18
23 22 21 19 18 18 17 15 14 12 10 10 12 12 8 9 5 4 13 13 8 6 7 7 9 11 5 7 6 8 13 13 12 14 15 14 13 12 8 8 7 5 2 2 4 3 2 3 4 4 4 4 4 6 8 7 7 5 4 4 4 5 3 4 4 2 1 2 1 3 8 8 6 6 6 7 9 9 9 9 9 9 11 13 14 15 16 17
23 22 21 19 18 18 16 15 13 9 8 9 10 9 8 8 7 8 9 8 10 11 10 8 10 11 7 7 6 9 13 11 10 14 15 14 12 10 6 5 4 4 2 2 4 2 2 4 5 5 3 6 6 6 8 7 7 5 4 5 4 4 5 5 4 3 1 2 4 6 8 6 4 4 4 6 7 6 8 8 7 8 10 14 15 15 16 16
23 22 21 20 17 17 16 15 12 8 5 7 8 7 9 11 10 8 5 6 11 13 10 9 11 10 7 6 9 12 13 11 11 14 16 15 11 8 7 5 3 4 3 4 5 3 3 3 3 3 6 8 6 5 7 6 4 4 5 5 5 8 8 5 4 3 4 2 5 9 6 4 3 3 4 6 5 4 7 7 7 8 9 12 15 16 17 16
23 22 21 20 18 16 16 15 11 6 5 7 8 7 9 12 9 8 6 4 7 8 6 6 7 7 6 7 11 14 12 11 12 14 16 15 11 8 7 5 4 4 4 6 6 4 2 2 3 5 5 6 6 6 7 5 3 3 7 6 6 11 8 5 8 7 7 6 7 10 4 1 5 5 6 6 5 6 7 7 8 11 12 12 14 17 17 15
22 22 21 20 18 16 16 13 7 4 6 7 7 6 8 12 9 6 4 3 3 4 4 5 5 6 9 10 13 14 11 10 13 15 16 15 13 9 5 5 4 4 5 6 5 3 1 2 4 5 4 4 5 6 6 6 3 3 7 7 7 12 9 10 13 10 5 3 7 8 3 3 5 7 8 6 7 8 8 9 10 11 14 14 14 16 17 16
21 22 20 19 18 16 14 9 5 7 8 6 5 5 9 12 9 5 2 1 2 2 2 5 4 7 10 11 15 15 9 9 13 16 17 15 14 9 5 4 2 2 5 6 3 1 0 1 3 4 6 6 4 3 4 5 5 3 4 6 8 11 13 14 14 9 4 3 5 5 4 3 4 9 12 8 9 10 8 10 13 13 14 15 15 17 19 18
20 21 20 18 18 16 13 9 9 11 8 4 3 5 10 12 7 3 2 0 2 1 3 5 5 8 9 12 19 13 5 9 12 16 20 17 15 10 6 4 2 2 4 4 2 1 2 3 3 4 6 7 5 4 5 6 5 2 3 8 11 12 14 16 13 7 2 4 5 2 2 2 3 5 9 10 10 11 10 11 13 15 16 17 18 19 21 20
19 20 21 18 16 16 14 12 12 10 6 3 4 6 10 9 4 2 2 1 1 1 3 4 6 9 10 16 20 8 5 12 10 12 20 20 15 9 5 5 3 3 3 2 2 2 3 4 5 7 5 5 4 2 6 6 1 2 4 8 8 7 9 10 8 5 3 4 4 4 2 3 4 1 3 9 11 12 14 14 15 17 18 19 20 21 22 22
18 20 21 18 15 14 13 12 11 8 5 3 3 6 8 5 1 1 1 1 0 1 2 5 7 8 10 15 13 4 6 9 4 10 18 18 15 6 2 5 4 5 2 1 1 2 2 3 4 6 4 4 2 5 4 3 1 5 9 11 10 8 8 4 3 4 3 3 4 7 9 5 4 2 3 6 9 14 15 14 15 18 20 20 21 23 24 24
18 19 20 19 16 14 13 11 8 5 4 3 5 7 6 1 1 1 1 1 1 1 2 4 4 5 9 10 5 2 3 2 5 12 12 11 12 4 3 6 4 4 2 2 1 1 0 1 2 2 1 4 7 7 3 1 7 13 11 12 11 8 6 4 3 3 2 4 2 5 11 7 3 3 6 7 8 12 14 11 12 17 20 21 23 25 26 26
18 18 19 20 17 14 13 10 5 5 5 6 6 4 1 2 0 2 2 0 0 1 1 2 2 4 9 7 3 3 2 1 5 12 8 5 8 4 4 5 3 3 1 1 2 1 1 3 2 1 2 6 9 8 5 4 7 8 6 8 8 5 3 3 2 1 3 5 1 1 7 8 5 4 5 8 6 6 10 11 13 18 21 23 25 27 27 26
18 17 18 19 17 14 13 9 7 7 7 7 4 1 3 2 2 3 2 2 1 1 1 2 1 3 6 4 3 4 3 2 3 6 6 4 5 5 3 3 3 3 2 2 2 1 2 2 1 1 3 4 6 7 5 3 2 3 6 7 5 3 3 3 2 2 4 3 2 1 6 6 7 8 6 8 9 7 9 12 15 20 22 24 28 30 29 27
18 18 17 17 16 14 11 9 8 7 7 5 3 2 3 1 2 2 2 2 0 0 1 1 1 3 5 4 3 3 2 3 3 3 3 2 4 5 0 1 2 2 1 1 2 3 3 1 0 2 2 4 5 6 6 4 4 6 7 5 3 4 4 4 3 1 3 1 3 2 5 4 5 7 6 7 9 11 11 11 13 18 22 28 33 34 31 29
18 17 18 15 13 12 10 9 8 8 8 6 3 2 2 2 2 1 2 2 1 1 1 1 1 3 5 4 2 3 2 3 3 3 3 3 5 5 2 1 2 1 3 2 1 2 3 2 3 4 2 4 6 3 3 5 5 4 2 2 4 4 3 4 4 3 2 2 4 4 4 4 3 1 2 3 3 6 9 10 10 13 19 28 32 33 32 30
17 16 16 14 11 11 10 9 9 10 10 8 3 1 3 3 2 1 2 1 2 2 1 1 2 4 3 1 1 2 3 2 3 3 3 4 4 5 4 5 4 2 3 3 2 1 1 1 1 1 0 4 5 1 3 5 5 1 1 1 2 3 2 1 0 1 1 2 3 3 2 3 3 1 1 3 4 5 7 10 11 12 15 20 24 29 32 32
17 14 13 11 10 10 10 10 11 13 13 9 3 3 3 2 2 2 1 1 2 2 2 1 2 3 3 2 1 2 1 0 2 3 2 2 3 3 3 3 5 6 5 4 2 2 1 1 1 1 1 1 3 4 2 0 3 3 2 3 1 1 2 3 2 2 0 2 2 2 3 3 2 3 2 2 5 5 6 9 13 14 15 18 21 28 33 34
17 13 9 7 7 9 11 11 12 16 15 9 3 3 2 2 2 2 1 2 2 2 2 1 1 2 3 3 3 3 2 2 2 2 3 2 2 4 3 2 6 9 9 5 2 2 3 2 2 1 2 3 2 7 7 4 1 3 4 6 5 1 1 2 1 2 1 3 2 2 4 3 2 2 1 2 6 7 6 9 12 13 16 20 22 29 35 36
18 13 7 5 7 7 10 13 15 18 14 6 3 3 2 2 2 2 3 3 2 1 1 2 1 1 2 4 3 3 4 5 4 2 3 2 2 4 5 3 6 11 12 9 4 1 3 3 2 0 2 4 2 4 6 5 5 2 4 6 4 2 1 1 1 2 2 3 2 2 3 3 4 3 1 3 7 7 6 8 11 14 18 20 23 30 37 37
18 11 4 5 7 4 12 16 19 18 10 3 3 3 1 3 4 5 5 4 1 1 2 2 1 0 1 3 3 3 3 5 5 3 3 3 3 3 3 3 5 8 8 8 5 2 1 3 2 1 0 2 2 3 5 4 5 4 5 5 1 1 1 1 1 1 2 2 1 1 1 3 4 3 3 5 5 6 8 9 11 15 19 21 22 29 37 38
15 6 2 6 5 7 16 17 16 12 5 2 2 1 1 3 5 7 8 5 3 2 2 2 1 1 2 2 1 2 2 3 5 4 2 4 4 4 4 4 3 3 3 4 3 2 2 2 3 2 1 3 4 3 5 6 6 5 6 4 1 2 1 1 2 1 1 2 1 2 3 3 2 3 5 6 4 6 10 10 11 15 18 20 21 27 36 40
10 2 1 5 2 12 16 12 8 4 2 1 1 1 1 3 3 6 9 7 5 5 4 3 2 1 2 2 1 2 3 2 4 3 2 5 5 4 4 5 5 6 5 4 3 3 2 2 3 4 4 5 2 2 2 2 3 4 5 5 4 4 3 2 2 1 0 1 1 1 4 4 1 2 4 4 2 6 11 11 11 15 18 20 23 28 34 39
6 1 2 3 1 12 12 5 1 0 1 2 1 3 3 4 3 4 6 4 5 5 3 3 3 2 2 2 1 2 3 2 3 3 3 5 5 3 3 4 8 10 7 4 2 2 2 2 3 3 2 2 2 3 2 2 0 2 1 2 4 4 4 4 4 3 2 1 1 1 3 3 1 1 3 3 3 5 9 11 12 14 18 22 25 27 31 35
8 4 2 0 2 11 10 1 0 1 1 1 1 4 4 3 2 2 2 2 3 3 2 2 3 3 3 2 2 3 3 3 3 3 3 3 4 4 5 6 7 7 5 3 3 3 2 1 2 1 1 1 2 2 2 1 1 2 0 1 3 2 2 2 1 2 3 3 3 2 3 3 2 1 2 4 5 7 8 12 13 13 16 22 25 27 29 33
12 8 2 0 2 10 8 1 2 2 1 0 1 2 4 3 4 4 3 3 2 1 2 2 3 2 1 0 2 3 2 2 3 3 2 2 2 3 5 7 8 7 5 4 6 8 5 1 2 3 2 2 2 2 2 2 3 3 1 2 2 3 6 4 3 2 2 3 3 3 6 3 1 1 2 2 4 6 8 11 13 13 14 19 24 28 30 31
10 5 1 3 2 9 5 2 0 1 1 1 1 2 2 3 4 4 5 5 4 3 3 2 1 2 0 0 1 1 1 0 1 2 2 1 2 1 2 7 11 10 5 4 8 12 6 1 3 6 5 6 6 5 4 4 3 2 3 4 3 5 7 4 3 2 4 3 3 4 6 3 1 0 2 2 3 6 7 9 12 14 14 16 20 27 30 31
6 2 2 5 6 7 6 7 4 0 1 1 0 1 2 2 3 5 4 3 4 5 5 3 2 2 1 1 1 1 1 1 1 1 2 2 2 1 2 3 9 8 4 6 12 11 3 0 3 5 6 6 5 3 0 2 5 4 5 7 5 4 5 4 3 3 4 4 4 5 3 3 3 3 3 3 5 6 6 8 11 14 17 18 21 25 29 30
4 1 2 3 4 6 6 8 7 3 0 0 0 1 3 2 4 5 2 1 6 8 3 3 0 1 1 2 2 1 1 1 1 1 2 1 1 1 1 2 5 6 6 9 11 7 2 2 4 3 4 2 1 2 0 1 5 5 7 9 6 5 6 6 4 3 4 4 5 4 3 4 6 5 6 6 5 6 6 9 12 15 20 22 23 24 27 28
4 2 3 3 2 1 2 5 7 5 2 1 1 1 3 3 3 4 3 3 6 8 4 1 2 5 4 2 1 2 2 1 1 1 1 1 1 1 1 2 2 5 6 5 5 3 2 3 3 3 3 2 2 1 0 0 2 3 7 10 8 8 9 8 5 4 6 5 5 1 6 7 7 5 7 7 4 5 8 11 14 17 20 22 23 24 27 28
5 3 3 5 2 0 3 6 5 2 3 3 2 3 4 4 4 3 3 4 4 7 6 1 3 8 9 5 2 2 2 1 1 2 2 1 1 1 2 2 1 2 3 3 2 1 1 2 2 3 4 4 2 0 0 2 4 4 4 6 6 7 7 5 3 4 6 6 4 0 5 9 8 6 10 11 9 9 12 13 14 15 18 21 23 25 26 29
6 4 5 5 2 2 5 5 3 1 2 4 2 3 4 4 5 5 3 2 3 6 7 5 8 12 9 4 1 2 2 2 2 1 0 1 1 1 2 2 2 2 2 2 1 1 0 2 2 2 3 3 2 2 3 3 4 5 4 3 3 4 4 3 2 3 4 5 4 3 5 9 7 7 11 16 14 12 12 12 11 13 16 20 22 23 26 29
8 8 8 4 2 4 5 3 2 1 2 4 3 2 3 3 6 7 4 3 2 4 6 8 10 10 6 1 4 4 5 5 6 6 5 4 4 3 2 1 3 2 2 1 0 1 1 2 1 1 3 2 2 3 4 4 4 3 3 5 6 6 4 3 2 3 5 4 3 4 5 7 3 3 7 11 9 9 11 10 10 12 16 20 22 23 27 31
9 8 8 4 1 5 5 2 2 1 1 2 3 2 3 3 6 7 3 1 0 3 6 10 9 6 3 3 5 7 11 12 13 13 11 9 10 11 8 5 4 1 2 2 1 1 2 4 3 2 3 3 2 2 4 4 3 3 4 6 9 7 4 3 2 4 6 5 4 5 5 5 2 0 4 5 5 6 9 8 9 12 17 21 23 26 28 31
Wind_Direction
352 351 348 344 342 342 343 344 344 344 343 342 341 336 329 326 324 318 309 299 291 287 284 283 282 280 279 277 273 265 258 249 246 240 223 208 202 200 191 190 193 190 183 169 159 153 134 124 162 302 294 212 200 239 224 202 196 183 225 134 119 146 148 164 172 153 125 137 156 169 161 134 124 117 114 103 91 94 84 72 87 103 127 142 144 151 151 146
350 351 348 344 342 341 342 343 344 344 342 340 340 338 333 329 326 320 310 301 293 289 287 283 281 279 279 277 272 267 259 251 250 236 212 193 195 195 191 190 191 190 180 167 161 152 135 143 177 297 238 182 172 204 199 174 174 172 247 102 125 167 88 150 160 155 152 155 156 151 133 121 120 129 135 117 100 101 85 80 95 101 113 129 140 152 152 148
348 350 348 345 342 341 341 342 343 342 341 340 339 338 337 334 330 324 313 302 295 291 288 284 281 278 276 273 269 268 266 266 256 236 207 191 195 192 194 194 191 186 175 170 167 157 161 157 168 269 180 152 118 159 146 166 178 166 173 116 140 168 93 129 158 163 163 146 136 116 104 103 105 122 129 128 123 110 104 112 113 117 124 131 141 152 152 151
347 348 349 346 342 340 340 341 341 341 340 339 338 337 337 337 333 326 315 304 295 290 287 283 279 274 270 266 264 262 276 282 254 235 205 192 194 192 195 193 192 186 172 177 177 163 159 140 147 122 123 89 80 145 126 149 184 132 175 107 136 162 112 81 112 104 104 119 117 116 116 100 93 98 104 125 117 91 134 153 147 142 141 140 145 150 152 155
347 346 348 347 343 340 339 339 340 339 338 337 337 336 335 336 335 328 317 307 295 289 285 279 272 264 260 251 251 236 228 297 227 219 196 192 193 192 195 193 194 188 176 183 178 156 141 129 147 94 80 54 47 135 73 84 147 106 4 44 96 144 97 81 92 100 107 113 113 116 112 99 95 81 75 71 43 55 116 172 151 147 146 146 149 151 154 156
346 345 346 347 343 339 337 337 338 338 337 337 336 334 332 333 334 328 319 311 298 291 281 271 257 245 241 230 237 216 207 164 152 181 186 192 195 192 194 194 195 188 181 189 173 127 118 132 143 84 65 49 32 36 51 120 163 118 53 48 58 75 99 101 106 115 120 113 108 108 101 103 103 78 56 59 54 68 87 133 143 144 146 147 150 152 155 158
346 345 344 346 344 339 336 336 337 337 337 337 336 332 330 329 330 327 320 313 302 295 281 268 254 242 232 219 225 217 224 235 119 157 178 190 195 192 192 192 193 188 187 191 160 121 109 116 110 86 69 88 66 40 68 84 101 106 91 61 71 86 99 112 116 120 118 108 105 113 109 96 100 93 61 67 81 99 106 128 139 141 145 146 149 151 156 161
345 345 343 344 343 339 336 335 337 337 337 339 337 332 329 325 324 323 317 313 309 306 292 274 259 242 231 219 216 220 228 222 139 149 174 188 191 188 188 188 190 188 192 184 146 127 107 99 104 97 78 80 77 71 93 87 68 71 96 85 88 91 99 115 117 118 114 109 114 109 96 81 88 90 67 72 104 117 120 130 136 140 144 147 150 152 157 162
344 344 342 342 343 340 337 336 336 337 339 340 337 334 332 328 324 319 313 316 319 318 305 278 256 233 224 213 206 214 214 200 169 150 168 185 186 184 184 186 189 187 191 170 142 133 108 99 112 114 116 107 86 71 85 97 69 63 96 97 98 97 106 117 113 114 113 113 120 108 90 94 96 83 67 84 120 127 129 133 139 144 147 151 154 157 160 163
343 343 342 341 341 340 338 336 336 337 340 341 339 340 340 337 332 322 321 330 332 335 332 291 233 207 201 190 185 187 188 191 185 149 148 173 183 185 185 187 189 187 181 156 137 119 106 109 121 119 111 91 78 58 39 79 113 104 97 88 94 99 103 115 108 108 108 108 120 114 100 93 89 77 78 113 131 134 134 137 146 149 153 158 159 163 166 167
342 343 342 340 340 341 339 337 337 337 340 341 340 343 345 344 342 337 341 348 351 1 18 38 146 177 178 178 177 163 167 177 162 145 143 158 168 178 184 186 184 181 165 150 139 117 107 109 120 122 109 99 101 67 53 105 123 116 105 86 83 93 97 111 109 109 104 113 125 114 102 82 59 74 107 137 143 142 138 142 154 158 161 166 165 167 170 172
342 343 342 340 339 340 340 337 337 337 339 340 338 342 345 344 347 351 352 356 11 26 45 62 84 131 156 178 181 155 150 155 139 143 149 155 158 161 165 166 163 160 152 151 141 120 110 106 107 107 114 120 118 69 82 123 127 121 114 100 91 96 107 114 111 117 117 147 157 128 97 72 47 88 129 147 150 147 141 146 158 167 171 173 173 171 173 178
341 342 342 341 339 339 341 338 337 336 338 340 337 340 344 343 346 349 353 358 10 26 49 66 68 97 143 185 187 160 144 140 129 136 145 155 160 159 153 149 151 148 149 152 139 121 115 106 97 104 116 99 76 103 114 122 120 116 109 110 121 115 137 157 127 137 180 164 192 282 95 77 58 120 147 153 157 153 147 151 162 172 179 180 181 176 177 183
339 342 342 341 339 338 341 339 336 336 337 339 337 340 343 341 338 339 345 348 350 4 12 31 32 41 227 204 186 180 150 136 130 129 135 150 157 157 152 149 150 149 152 152 136 121 115 111 106 104 103 92 105 111 107 99 99 115 109 109 141 153 163 176 176 171 195 182 265 295 144 113 101 137 157 163 164 162 157 160 167 176 183 186 188 186 187 190
337 341 342 341 340 338 340 339 335 335 337 338 338 340 342 339 333 331 318 328 327 333 337 324 356 343 283 209 177 188 161 146 140 128 127 142 151 151 148 149 149 151 153 149 134 122 116 114 110 99 94 109 124 119 102 90 79 120 131 135 175 188 160 182 210 204 202 191 315 314 130 119 129 148 162 169 173 173 166 167 174 182 187 193 196 196 199 202
335 339 342 341 340 338 339 338 335 335 336 338 339 339 340 337 329 317 294 299 299 304 308 287 323 329 279 172 178 190 169 160 150 135 134 142 148 146 144 145 146 149 148 139 132 122 115 111 103 95 102 119 130 125 114 120 133 188 171 158 180 185 160 183 209 208 227 254 337 342 137 134 131 155 162 170 179 181 174 173 181 188 192 199 204 205 208 211
333 337 341 341 340 338 337 338 335 335 336 338 339 340 339 333 326 309 273 275 286 285 281 276 279 274 236 187 187 184 172 167 156 143 141 144 145 143 142 142 144 148 142 132 132 126 115 110 110 100 89 96 130 136 132 146 165 178 225 159 176 182 170 175 194 184 189 247 318 38 123 130 121 150 161 170 180 185 184 180 186 196 199 205 211 214 216 220
330 334 338 340 339 337 336 337 336 334 336 337 339 341 338 334 330 304 255 270 284 289 294 268 204 216 214 190 176 168 171 170 160 151 147 147 143 141 141 139 141 145 140 129 127 135 127 96 104 127 100 97 168 164 160 165 172 179 184 176 174 191 192 186 181 171 167 188 175 118 114 124 131 149 160 168 179 190 192 186 189 199 207 211 214 220 225 228
328 331 335 338 337 337 336 336 335 333 334 335 340 343 342 346 340 284 305 307 281 281 290 210 192 259 220 188 182 168 171 165 162 161 155 152 146 142 141 141 145 147 147 145 132 123 122 109 118 158 170 171 177 177 160 155 175 183 177 174 177 185 199 187 126 158 168 153 145 149 134 142 152 155 161 165 174 190 192 187 191 199 211 215 217 222 229 232
325 328 331 336 336 336 335 334 334 331 331 332 341 347 351 357 358 193 333 311 283 271 262 241 238 265 254 175 167 162 165 161 167 169 162 159 153 147 139 137 142 142 144 157 138 88 109 173 192 185 186 182 174 147 112 117 141 155 161 171 184 188 181 153 98 99 165 150 105 153 137 146 157 156 164 164 164 182 196 195 195 199 209 215 219 222 227 230
323 325 328 333 334 335 332 331 331 326 327 328 339 356 10 7 1 320 327 315 293 280 270 262 249 256 232 169 160 156 158 159 167 170 165 162 160 159 145 132 141 142 116 84 96 92 143 196 206 210 201 155 131 125 115 115 129 141 176 173 182 199 163 122 126 94 201 196 134 140 139 138 151 153 159 170 173 186 199 204 204 204 210 215 219 221 224 227
321 323 326 329 332 333 329 328 325 315 323 327 329 357 14 359 343 326 326 306 294 294 284 269 252 255 239 200 192 167 158 155 162 169 169 166 167 173 153 128 146 149 104 93 114 129 192 209 208 205 159 107 99 125 125 121 141 147 170 181 185 171 126 108 117 76 353 221 155 155 149 131 142 155 165 187 191 188 190 201 212 208 213 216 216 219 222 224
319 321 323 325 328 330 327 325 318 298 305 321 313 330 353 350 339 326 319 289 293 297 283 261 251 251 241 211 188 171 164 157 159 169 174 174 172 172 158 132 123 132 134 165 169 171 177 192 202 164 141 129 107 122 129 120 146 160 164 181 181 165 159 156 148 82 54 83 151 157 144 121 147 164 184 198 197 190 191 201 216 215 217 219 219 221 223 224
318 319 320 321 324 327 327 320 311 286 282 309 301 297 334 344 334 318 309 281 288 295 276 247 236 229 210 183 175 173 167 160 166 172 177 179 170 162 162 139 116 140 168 180 182 188 170 133 110 104 129 146 124 133 154 150 157 183 189 198 177 174 176 136 137 123 76 72 136 145 130 178 191 196 199 195 197 205 201 202 213 214 216 217 219 222 222 222
318 318 318 319 320 324 328 318 306 298 295 306 296 280 322 336 330 313 306 291 274 275 255 219 212 205 179 166 175 175 165 167 178 178 182 187 173 154 152 151 152 175 170 164 177 207 227 148 142 122 123 144 136 157 183 184 175 189 210 221 192 170 145 116 136 144 121 129 166 163 190 207 188 210 210 189 198 207 200 207 213 208 211 215 213 215 216 214
317 317 317 318 318 320 327 317 299 311 308 303 289 281 317 329 326 302 297 337 275 243 185 179 173 172 172 168 169 167 163 177 183 181 186 194 184 166 143 150 182 187 158 157 169 221 30 131 165 157 142 145 155 175 186 195 182 169 196 189 169 154 137 136 151 158 160 169 171 192 245 222 178 213 214 199 206 211 201 212 215 204 205 210 209 210 211 209
317 316 315 317 319 318 322 314 302 309 306 290 279 291 316 325 323 286 269 329 249 195 138 159 153 158 169 163 160 160 162 167 171 183 187 189 187 184 173 170 187 156 151 162 149 142 165 145 153 157 137 147 177 182 185 198 178 140 136 146 152 154 151 156 161 158 138 108 119 180 282 274 225 216 206 197 207 219 215 217 215 206 205 207 208 210 210 210
318 315 311 314 315 313 314 310 309 310 293 273 281 295 317 326 323 258 249 215 213 120 131 154 151 155 158 159 163 163 142 153 160 185 185 181 181 188 201 198 177 132 139 189 158 134 173 175 168 164 143 163 193 142 158 172 118 61 103 115 126 134 140 155 153 123 105 135 166 195 201 249 242 176 167 194 210 227 225 220 213 205 204 205 207 210 212 213
317 313 309 307 307 306 304 305 310 304 277 267 281 295 313 317 283 216 219 234 234 95 134 148 148 155 151 158 174 185 142 154 158 173 178 181 183 191 207 183 151 116 104 297 186 117 172 221 194 172 161 170 112 57 135 172 59 122 109 90 83 72 72 86 113 96 110 203 217 190 187 223 247 184 152 183 212 227 226 219 211 204 203 203 206 209 213 216
316 313 308 303 302 299 295 302 308 287 264 281 291 300 310 286 213 223 193 237 268 87 144 158 153 158 150 154 191 226 155 147 124 148 160 175 183 185 116 142 127 121 99 13 95 95 46 200 195 177 142 126 101 68 40 57 131 136 115 94 90 78 71 61 50 73 140 227 252 182 192 212 270 213 178 184 211 223 218 207 200 201 200 201 205 210 213 215
314 312 307 301 298 292 289 296 293 263 268 288 299 301 272 131 120 231 195 16 152 122 137 165 145 154 158 160 183 173 159 53 126 147 151 154 172 160 122 141 119 123 150 57 145 353 53 141 165 162 124 120 109 83 51 86 135 136 119 121 107 81 97 90 68 107 228 223 18 39 194 201 242 242 192 201 218 223 216 206 196 197 198 198 203 209 212 213
314 310 305 298 291 283 282 284 270 259 262 276 294 225 156 162 242 228 251 342 145 178 210 172 165 160 163 165 162 153 155 160 145 153 150 147 171 172 173 191 167 153 201 187 159 123 120 145 319 35 144 154 126 100 90 102 154 139 133 143 127 106 157 167 164 200 235 225 44 49 186 190 241 257 249 226 220 222 225 221 208 199 193 194 202 209 210 211
317 311 302 292 285 278 274 270 256 246 242 252 261 151 132 198 230 213 260 309 92 246 352 102 112 140 156 168 168 159 155 164 178 170 139 137 181 178 116 32 153 157 170 171 164 152 146 160 253 131 150 207 181 147 148 175 190 166 152 159 151 144 175 186 172 233 249 219 54 115 181 203 253 261 268 242 224 224 225 229 223 206 196 197 203 208 209 209
320 315 303 291 282 272 260 249 235 222 220 219 209 154 140 198 225 221 250 265 322 292 18 71 100 135 155 181 183 173 185 176 167 157 141 147 177 186 182 164 176 91 96 139 187 165 175 184 168 158 153 186 192 183 140 145 162 167 141 169 171 165 194 203 190 215 217 133 84 116 177 219 224 204 304 274 266 245 231 232 232 215 204 201 202 205 206 206
322 318 305 294 278 260 245 230 213 204 204 193 170 181 184 205 238 243 233 272 311 292 340 45 152 153 167 208 275 199 212 203 159 151 153 162 180 187 179 183 197 161 132 173 189 120 225 216 140 10 57 170 180 163 66 120 141 127 54 188 200 179 167 136 140 170 119 112 134 162 221 243 240 280 297 281 288 264 240 232 227 218 206 197 196 201 204 205
324 320 305 288 266 250 236 216 198 194 188 171 166 225 213 232 235 185 186 318 318 311 319 326 147 163 184 184 191 194 201 156 155 172 174 168 198 189 178 185 182 181 178 172 167 151 188 189 58 35 68 133 174 134 85 113 152 137 171 178 155 49 116 123 104 64 57 226 169 180 248 259 276 261 209 247 258 240 228 222 216 210 198 191 194 201 204 205
327 327 310 277 262 252 226 202 188 186 179 166 191 231 227 257 215 189 287 317 293 301 306 261 173 180 180 178 189 170 147 144 159 195 180 168 209 183 189 214 178 186 192 184 202 225 194 156 75 177 143 89 123 123 90 30 39 163 183 154 132 87 62 108 154 115 181 238 186 177 249 263 288 265 173 220 243 229 212 210 206 199 193 194 198 202 205 205
331 334 319 288 289 260 209 188 180 175 167 160 228 243 229 237 215 221 282 306 283 266 265 238 235 207 177 187 186 152 162 174 166 182 170 177 237 171 167 188 182 194 197 190 206 234 199 183 100 352 152 116 148 156 113 62 23 35 143 134 140 201 163 118 185 173 202 247 208 182 257 263 226 225 218 223 230 218 198 197 199 197 197 198 199 202 206 206
332 336 333 327 318 232 181 172 169 165 156 163 226 229 229 255 267 263 270 290 266 211 251 249 242 264 188 187 169 146 174 179 161 167 182 189 209 177 177 200 188 197 194 184 192 155 150 229 177 105 120 151 197 219 183 130 62 65 122 128 347 319 139 142 122 192 231 229 211 196 241 244 215 208 228 234 224 195 185 192 202 203 202 202 200 201 204 206
331 337 13 355 353 159 158 156 159 159 157 186 212 196 282 282 279 276 278 279 244 227 264 256 220 220 200 205 207 157 162 171 158 167 194 184 192 196 204 204 159 146 151 158 180 142 110 234 195 123 97 201 193 205 203 169 130 142 161 158 145 100 99 176 122 59 276 189 186 236 251 255 207 182 217 234 223 186 186 194 204 207 206 206 204 203 205 206
332 349 62 5 71 151 151 149 154 157 154 168 216 204 246 287 287 289 288 274 247 247 254 234 232 262 199 189 229 164 141 149 160 169 195 190 208 217 198 193 163 136 132 145 176 180 165 183 174 154 171 194 189 20 283 222 154 162 182 184 166 137 140 186 182 164 292 222 190 227 268 273 165 169 222 239 233 201 198 197 201 207 207 208 210 210 209 209
339 338 115 18 148 167 163 153 126 17 174 177 225 226 253 285 275 291 297 269 238 241 247 238 226 235 218 191 181 158 146 150 161 174 197 198 216 215 170 161 161 155 148 150 164 157 134 129 147 158 191 207 357 12 332 287 357 105 155 183 157 143 165 196 214 190 152 155 98 94 276 275 114 149 240 250 256 237 215 205 204 207 208 210 213 213 213 213
334 312 180 15 228 180 175 181 94 185 223 181 247 243 250 270 257 281 307 268 240 231 226 237 214 213 227 209 182 181 174 172 178 186 199 201 213 209 185 159 154 163 164 145 139 145 138 120 128 115 11 48 35 45 76 61 172 182 94 138 167 170 151 167 194 159 157 176 157 159 253 259 120 138 249 252 246 246 233 219 213 211 209 211 213 213 214 215
327 310 213 17 239 186 185 257 197 188 241 33 359 271 256 253 240 255 271 259 256 237 231 252 223 217 255 167 167 189 185 186 199 202 195 189 188 196 197 186 178 182 193 189 172 171 179 177 131 145 142 134 152 167 157 181 214 210 138 135 167 122 106 108 102 117 205 199 163 206 249 257 103 124 263 249 230 238 237 227 221 219 213 210 211 213 214 214
330 307 248 26 98 174 169 34 120 173 109 126 344 345 316 271 250 278 288 272 280 278 260 276 242 202 302 61 145 126 92 214 208 188 181 199 197 222 255 212 197 193 211 224 174 163 167 178 155 166 171 178 191 197 196 183 175 167 145 156 164 140 142 142 115 165 225 192 158 216 249 269 35 288 264 233 228 243 237 225 224 225 222 215 212 213 212 212
351 343 348 20 72 114 90 51 34 13 97 97 131 55 9 300 292 322 306 271 328 319 267 264 276 204 183 172 162 108 68 7 30 142 172 172 180 233 319 212 194 192 188 170 157 148 131 85 163 179 189 191 189 183 186 138 151 166 170 164 163 153 147 131 129 199 197 151 187 221 244 290 278 266 268 239 227 241 237 222 219 220 222 220 218 216 212 211
12 27 343 355 46 70 67 51 31 12 6 59 95 30 360 318 309 333 345 45 3 352 292 243 307 252 219 192 173 134 106 106 85 134 181 169 176 255 316 145 163 160 146 148 151 140 109 165 168 175 191 202 88 109 103 171 160 164 162 162 164 157 157 168 189 192 136 149 239 224 165 246 262 259 269 261 239 242 241 228 222 221 221 219 217 214 211 210
26 52 35 9 13 49 45 20 5 1 24 39 77 49 11 2 351 350 342 327 356 11 360 209 67 13 342 316 191 170 156 140 136 168 192 162 113 153 136 114 126 145 147 146 150 148 133 153 163 162 150 109 65 100 238 139 123 135 155 163 165 167 180 194 194 150 155 209 271 141 153 221 253 265 274 272 251 244 252 249 242 233 223 215 210 207 206 206
33 53 31 14 29 48 332 337 329 340 36 23 41 56 23 14 14 353 313 309 347 16 12 345 1 351 336 321 287 186 166 164 181 189 194 170 140 153 159 144 93 120 146 134 105 156 153 126 152 165 125 103 89 69 167 121 115 114 138 157 164 171 186 202 188 164 190 242 292 127 203 242 252 255 267 274 274 268 268 265 251 231 217 210 206 203 202 202
41 40 1 348 16 348 330 342 344 31 43 12 28 44 14 17 14 345 299 282 333 9 16 352 333 329 318 305 293 130 74 352 297 269 264 170 160 168 185 189 158 115 104 115 98 309 214 144 168 170 122 101 64 60 76 89 110 125 134 144 148 149 168 200 204 171 200 261 280 243 250 263 249 232 255 271 278 273 262 251 235 219 211 206 202 199 199 202
41 34 13 352 12 1 347 353 3 71 61 17 20 20 1 25 8 335 281 241 323 30 23 345 327 320 309 356 79 70 17 329 288 287 295 283 277 278 290 266 200 160 96 91 112 8 74 123 153 181 165 146 55 65 94 87 92 130 183 200 181 166 174 197 189 176 193 223 235 231 261 275 256 207 249 265 266 256 248 235 219 213 211 206 201 200 201 204
32 27 17 2 21 15 3 347 345 49 94 20 5 347 331 349 347 331 299 254 279 64 17 345 330 316 304 76 54 350 323 304 286 286 286 280 282 278 269 268 263 235 125 131 105 30 118 140 144 187 187 148 93 104 121 121 154 195 227 210 189 182 182 161 163 206 209 205 214 237 260 279 298 235 258 262 248 246 251 239 219 217 215 212 210 209 208 208